Weather in Rogataya Balka

Russia / Stavropol Krai     45°12′18″N   43°02′34″E
В апреле 2022 года жителям России запретили посещать сайт meteo.paraplan.net по решению Генеральной прокуратуры. Аудитория сайта уменьшилась в 10 раз. Владельцы сайта не видят смысла в поддержке погодного сервера в таких условиях. Сайт будет закрыт в октябре.
temp.,
°C
wind,
m/s
gust,
m/s
humid.,
%
clouds,
%
prec.,
mm/h
press.,
hPa
HPBL,
m
25 september, sun
sun2500:00+10wnw5158576 0.0 1018803
03:00+11w7147387 0.0 1018816
06:00+9w614814 0.0 1019521
09:00+13w813610 0.0 10201302
12:00+17w10154448 0.0 10202091
15:00+17w1015395 0.0 10192036
18:00+14wnw48524 0.0 1020207
21:00+12sw33615 0.0 102243
26 september, mon
mon2600:00+11sw37711 0.0 1022128
03:00+10sw33805 0.0 102245
06:00+9ssw33831 0.0 102230
09:00+15ssw33525 0.0 1022463
12:00+20ssw343823 0.0 10201389
15:00+21s3336100 0.0 10181585
18:00+17se334940 0.0 101841
21:00+15se34575 0.0 101847
27 september, tue
tue2700:00+14se37625 0.0 1017134
03:00+12se411835 0.0 1016210
06:00+12se4109581 0.0 1015229
09:00+17se6875100 0.0 1014484
12:00+22se5649100 0.0 1012764
15:00+23se4545100 0.0 1011830
18:00+19se335890 0.0 101040
21:00+17se356416 0.0 101068
28 september, wed
wed2800:00+16se41184100 0.0 1009228
03:00+15se41090100 0.0 1008197
06:00+14se4892100 0.0 1007152
09:00+19sse5770100 0.0 1007324
12:00+24s3348100 0.0 1006623
15:00+25wnw2239100 0.0 1006837
18:00+22wnw2243100 0.0 100818
21:00+19wsw2238100 0.0 100914
29 september, thu
thu2900:00+18wnw3742100 0.0 1010140
03:00+16wnw3772100 0.0 1011139
06:00+17w237498 0.0 101272
09:00+20wnw3464100 0.0 1013453
12:00+23wnw335282 0.0 1013941
15:00+25nw224328 0.0 10121490
18:00+22n11535 0.0 101411
21:00+19ese22630 0.0 101513